Find STARLINK-37516

NORAD ID: 70580 Constellation: starlink operational
LEOCIRCULARRETROGRADE

实时位置

正在加载3D地球...

关于 STARLINK-37516

正在加载描述...

即将过境

Passes for default location (London). Set your location on the main map for personalized predictions.

高度历史

Loading altitude history...

两行轨道根数

1 70580C 26097W 26121.89354167 -.00096507 00000+0 -13639-3 0 1219
2 70580 97.2853 316.5556 0009545 254.4010 69.0507 16.05656949 15
Epoch: May 1, 2026 • Age: 30 hours